| time (UTC) | temp F | wind direction | speed knots | gust knots | rain 1hr in | rain 24hr in | rain mn in | humidity % | barometer mb |
| 20260505040034 | 52 | 227 | 0.0 | 3.5 | 0.00 | 0.00 | 0.00 | 50 | 1011.4 |
| 20260505034034 | 52 | 192 | 0.0 | 7.0 | 0.00 | 0.00 | 0.00 | 52 | 1011.3 |
| 20260505032035 | 52 | 192 | 0.0 | 7.0 | 0.00 | 0.00 | 0.00 | 56 | 1011.3 |
| 20260505031926 | 52 | 192 | 0.0 | 7.0 | 0.00 | 0.00 | 0.00 | 56 | 1011.3 |
| 20260505024034 | 53 | 190 | 4.3 | 5.2 | 0.00 | 0.00 | 0.00 | 60 | 1011.4 |
| 20260505022034 | 54 | 205 | 0.0 | 5.2 | 0.00 | 0.00 | 0.00 | 62 | 1011.5 |
| 20260505021926 | 54 | 205 | 0.0 | 5.2 | 0.00 | 0.00 | 0.00 | 62 | 1011.5 |
| 20260505020034 | 54 | 180 | 0.0 | 8.7 | 0.00 | 0.00 | 0.00 | 63 | 1011.5 |
| 20260505014034 | 54 | 179 | 0.0 | 8.7 | 0.00 | 0.00 | 0.00 | 65 | 1011.5 |
| 20260505012034 | 55 | 198 | 0.0 | 8.7 | 0.00 | 0.00 | 0.00 | 65 | 1011.3 |
| 20260505011926 | 55 | 205 | 0.0 | 8.7 | 0.00 | 0.00 | 0.00 | 65 | 1011.2 |
| 20260505010034 | 56 | 177 | 3.5 | 8.7 | 0.00 | 0.00 | 0.00 | 66 | 1010.8 |
| 20260505004034 | 56 | 157 | 0.0 | 8.7 | 0.00 | 0.00 | 0.00 | 65 | 1010.4 |
| 20260505002035 | 58 | 203 | 0.0 | 8.7 | 0.00 | 0.00 | 0.00 | 62 | 1010.0 |
| 20260505001926 | 58 | 179 | 0.0 | 8.7 | 0.00 | 0.00 | 0.00 | 62 | 1010.1 |
| 20260505000034 | 59 | 178 | 0.0 | 8.7 | 0.00 | 0.00 | 0.00 | 60 | 1009.7 |
| 20260504234034 | 60 | 188 | 0.0 | 12.2 | 0.00 | 0.00 | 0.00 | 57 | 1009.4 |
| 20260504232035 | 61 | 229 | 0.0 | 12.2 | 0.00 | 0.00 | 0.00 | 54 | 1009.2 |
| 20260504231926 | 61 | 236 | 0.0 | 12.2 | 0.00 | 0.00 | 0.00 | 54 | 1009.2 |
| 20260504230034 | 63 | 165 | 3.5 | 18.2 | 0.00 | 0.00 | 0.00 | 51 | 1009.0 |
| 20260504224035 | 64 | 219 | 0.0 | 18.2 | 0.00 | 0.00 | 0.00 | 48 | 1008.9 |
| 20260504222034 | 64 | 209 | 3.5 | 18.2 | 0.00 | 0.00 | 0.00 | 48 | 1008.9 |
| 20260504221926 | 64 | 201 | 0.0 | 18.2 | 0.00 | 0.00 | 0.00 | 48 | 1008.8 |
| 20260504220035 | 65 | 180 | 4.3 | 18.2 | 0.00 | 0.00 | 0.00 | 46 | 1008.7 |
| 20260504214033 | 66 | 171 | 0.0 | 18.2 | 0.00 | 0.00 | 0.00 | 44 | 1008.6 |
| 20260504212033 | 67 | 220 | 10.4 | 18.2 | 0.00 | 0.00 | 0.00 | 42 | 1008.5 |
| 20260504211926 | 67 | 218 | 6.1 | 18.2 | 0.00 | 0.00 | 0.00 | 42 | 1008.5 |
| 20260504210033 | 67 | 190 | 0.0 | 20.9 | 0.00 | 0.00 | 0.00 | 41 | 1008.4 |
| 20260504204033 | 68 | 198 | 4.3 | 20.9 | 0.00 | 0.00 | 0.00 | 40 | 1008.4 |
| 20260504202033 | 68 | 165 | 4.3 | 20.9 | 0.00 | 0.00 | 0.00 | 40 | 1008.3 |
| 20260504201926 | 68 | 177 | 0.0 | 20.9 | 0.00 | 0.00 | 0.00 | 40 | 1008.4 |
| 20260504200033 | 69 | 163 | 0.0 | 16.5 | 0.00 | 0.00 | 0.00 | 36 | 1008.3 |
| 20260504194033 | 70 | 167 | 0.0 | 16.5 | 0.00 | 0.00 | 0.00 | 35 | 1008.3 |
| 20260504192033 | 69 | 224 | 16.5 | 16.5 | 0.00 | 0.00 | 0.00 | 34 | 1008.3 |
| 20260504191926 | 69 | 200 | 9.6 | 16.5 | 0.00 | 0.00 | 0.00 | 35 | 1008.2 |
| 20260504190033 | 69 | 178 | 0.0 | 20.9 | 0.00 | 0.00 | 0.00 | 34 | 1008.4 |
| 20260504184035 | 69 | 247 | 0.0 | 20.9 | 0.00 | 0.00 | 0.00 | 33 | 1008.6 |
| 20260504182035 | 69 | 220 | 2.6 | 20.9 | 0.00 | 0.00 | 0.00 | 34 | 1008.9 |
| 20260504181926 | 69 | 232 | 4.3 | 20.9 | 0.00 | 0.00 | 0.00 | 34 | 1008.9 |
| 20260504180034 | 68 | 230 | 11.3 | 16.5 | 0.00 | 0.00 | 0.00 | 35 | 1009.1 |
| 20260504174034 | 68 | 228 | 1.7 | 16.5 | 0.00 | 0.00 | 0.00 | 35 | 1009.2 |
| 20260504172032 | 68 | 237 | 4.3 | 16.5 | 0.00 | 0.00 | 0.00 | 34 | 1009.1 |
| 20260504171926 | 68 | 189 | 4.3 | 16.5 | 0.00 | 0.00 | 0.00 | 34 | 1009.2 |
| 20260504090128 | 37 | 291 | 0.0 | 0.0 | 0.00 | 0.00 | 0.00 | 57 | 1011.8 |
| 20260504081926 | 38 | 291 | 0.0 | 0.0 | 0.00 | 0.00 | 0.00 | 55 | 1011.4 |
| 20260504044033 | 35 | 291 | 0.0 | 0.0 | 0.00 | 0.00 | 0.00 | 53 | 1011.8 |